DW6193 Weather Reports


Display with metric or nautical units.
time (UTC)temp
F
wind
direction
speed
MPH
gust
MPH
rain 1hr
in
rain 24hr
in
rain mn
in
humidity
%
barometer
mb
20260902104600 59 99 2.0 8.0 0.00 0.00 0.00 1011.5
20260902104024 60 120 5.0 8.0 0.00 0.00 0.00 1011.5
20260902103530 60 121 4.0 8.0 0.00 0.00 0.00 1011.6
20260902103042 60 114 3.0 6.0 0.00 0.00 0.00 1011.7
20260902102525 60 72 2.0 5.0 0.00 0.00 0.00 1011.7
20260902102025 59 66 2.0 4.0 0.00 0.00 0.00 1011.9
20260902101552 59 355 1.0 5.0 0.00 0.00 0.00 1011.8
20260902101025 59 76 2.0 6.0 0.00 0.00 0.00 1012.1
20260902100526 59 141 1.0 6.0 0.00 0.00 0.00 1012.0
20260902100046 59 268 3.0 6.0 0.00 0.00 0.00 1012.1
20260902095523 59 299 3.0 7.0 0.00 0.00 0.00 1012.0
20260902095025 59 302 2.0 7.0 0.00 0.00 0.00 1012.2
20260902094546 59 255 2.0 6.0 0.00 0.00 0.00 1012.2
20260902094027 59 176 2.0 5.0 0.00 0.00 0.00 1012.2
20260902093524 59 210 1.0 6.0 0.00 0.00 0.00 1012.2
20260902093050 59 236 2.0 7.0 0.00 0.00 0.00 1012.2
20260902092524 59 248 2.0 8.0 0.00 0.00 0.00 1012.4
20260902092025 59 276 4.0 8.0 0.00 0.00 0.00 1012.3
20260902091553 59 280 3.0 10.0 0.00 0.00 0.00 1012.2
20260902091024 59 290 3.0 10.0 0.00 0.00 0.00 1012.2
20260902090531 59 272 3.0 10.0 0.00 0.00 0.00 1012.3
20260902090047 59 272 5.0 9.0 0.00 0.00 0.00 1012.3
20260902085525 59 261 3.0 9.0 0.00 0.00 0.00 1012.3
20260902085024 60 263 3.0 11.0 0.00 0.00 0.00 1012.5
20260902084546 60 293 4.0 11.0 0.00 0.00 0.00 1012.4
20260902084024 60 322 3.0 8.0 0.00 0.00 0.00 1012.5
20260902083525 60 297 4.0 8.0 0.00 0.00 0.00 1012.5
20260902083056 60 0 1.0 8.0 0.00 0.00 0.00 1012.5
20260902082525 60 322 2.0 8.0 0.00 0.00 0.00 1012.4
20260902082027 60 283 1.0 7.0 0.00 0.00 0.00 1012.4
20260902081548 60 283 2.0 8.0 0.00 0.00 0.00 1012.4
20260902081025 60 279 2.0 8.0 0.00 0.00 0.00 1012.3
20260902080524 60 288 2.0 6.0 0.00 0.00 0.00 1012.4
20260902080048 60 286 2.0 6.0 0.00 0.00 0.00 1012.3
20260902075525 60 281 2.0 7.0 0.00 0.00 0.00 1012.5
20260902075026 60 297 1.0 7.0 0.00 0.00 0.00 1012.4
20260902074547 61 293 1.0 6.0 0.00 0.00 0.00 1012.6
20260902074025 60 302 2.0 6.0 0.00 0.00 0.00 1012.4
20260902073527 60 264 2.0 6.0 0.00 0.00 0.00 1012.6
20260902073054 60 291 1.0 5.0 0.00 0.00 0.00 1012.6
20260902072526 60 290 2.0 5.0 0.00 0.00 0.00 1012.6
20260902072027 61 141 1.0 3.0 0.00 0.00 0.00 1012.6
20260902071545 61 99 0.0 3.0 0.00 0.00 0.00 1012.7
20260902071026 60 183 1.0 3.0 0.00 0.00 0.00 1012.7
20260902070528 61 116 0.0 3.0 0.00 0.00 0.00 1012.9
20260902070049 61 0 0.0 4.0 0.00 0.00 0.00 1012.9
20260902065529 61 356 0.0 4.0 0.00 0.00 0.00 1013.0
20260902065027 60 120 1.0 4.0 0.00 0.00 0.00 1013.0
20260902064545 61 0 0.0 5.0 0.00 0.00 0.00 1013.0
20260902064028 61 129 2.0 5.0 0.00 0.00 0.00 1013.1
20260902063526 61 183 1.0 5.0 0.00 0.00 0.00 1013.1
20260902063046 61 116 1.0 7.0 0.00 0.00 0.00 1013.1
20260902062526 61 134 2.0 7.0 0.00 0.00 0.00 1013.1
20260902062024 61 155 2.0 6.0 0.00 0.00 0.00 1013.0
20260902061550 60 141 1.0 6.0 0.00 0.00 0.00 1013.0
20260902061024 60 183 3.0 6.0 0.00 0.00 0.00 1013.2
20260902060523 60 183 1.0 6.0 0.00 0.00 0.00 1013.2
20260902060044 60 183 2.0 6.0 0.00 0.00 0.00 1013.2
20260902055523 60 0 1.0 9.0 0.00 0.00 0.00 1013.4
20260902055025 60 183 2.0 9.0 0.00 0.00 0.00 1013.2
20260902054555 61 309 4.0 9.0 0.00 0.00 0.00 1013.4
20260902054033 61 283 3.0 8.0 0.00 0.00 0.00 1013.3
20260902053530 61 315 3.0 11.0 0.00 0.00 0.00 1013.4
20260902053057 61 295 4.0 11.0 0.00 0.00 0.00 1013.2
20260902052523 61 261 1.0 8.0 0.00 0.00 0.00 1013.2
20260902052023 61 285 3.0 9.0 0.00 0.00 0.00 1013.3
20260902051543 61 268 3.0 9.0 0.00 0.00 0.00 1013.1
20260902051025 61 291 3.0 10.0 0.00 0.00 0.00 1013.1
20260902050526 61 275 3.0 10.0 0.00 0.00 0.00 1013.0
20260902050059 61 311 4.0 10.0 0.00 0.00 0.00 1013.0
20260902045524 61 259 3.0 8.0 0.00 0.00 0.00 1013.0
20260902045028 61 290 3.0 7.0 0.00 0.00 0.00 1012.9
20260902044550 61 319 3.0 7.0 0.00 0.00 0.00 1013.0
20260902044029 61 141 2.0 7.0 0.00 0.00 0.00 1013.1
20260902043526 61 279 2.0 7.0 0.00 0.00 0.00 1013.2
20260902043053 62 286 2.0 7.0 0.00 0.00 0.00 1013.0
20260902042526 61 297 3.0 7.0 0.00 0.00 0.00 1012.9
20260902042025 61 291 1.0 9.0 0.00 0.00 0.00 1013.1
20260902041543 61 261 2.0 13.0 0.00 0.00 0.00 1012.9
20260902041025 61 286 4.0 13.0 0.00 0.00 0.00 1012.9
20260902040528 62 297 3.0 14.0 0.00 0.00 0.00 1012.9
20260902040055 62 305 6.0 14.0 0.00 0.00 0.00 1012.8
20260902035526 62 297 6.0 13.0 0.00 0.00 0.00 1012.8
20260902035023 62 173 4.0 12.0 0.00 0.00 0.00 1012.9
20260902034549 62 292 5.0 12.0 0.00 0.00 0.00 1012.7
20260902034028 62 290 5.0 10.0 0.00 0.00 0.00 1012.7
20260902033527 62 243 6.0 10.0 0.00 0.00 0.00 1012.7
20260902033046 63 288 4.0 12.0 0.00 0.00 0.00 1012.5
20260902032525 63 241 2.0 12.0 0.00 0.00 0.00 1012.6
20260902032025 63 261 6.0 12.0 0.00 0.00 0.00 1012.5
20260902031547 63 292 2.0 9.0 0.00 0.00 0.00 1012.6
20260902031029 63 288 4.0 9.0 0.00 0.00 0.00 1012.5
20260902030525 63 278 3.0 10.0 0.00 0.00 0.00 1012.7
20260902030043 63 55 5.0 10.0 0.00 0.00 0.00 1012.5
20260902025524 63 261 2.0 10.0 0.00 0.00 0.00 1012.7
20260902025027 63 277 4.0 10.0 0.00 0.00 0.00 1012.7
20260902024549 64 293 4.0 10.0 0.00 0.00 0.00 1012.5
20260902024026 64 120 3.0 10.0 0.00 0.00 0.00 1012.5
20260902023530 64 285 2.0 8.0 0.00 0.00 0.00 1012.5
20260902023048 64 284 1.0 8.0 0.00 0.00 0.00 1012.2
20260902022526 64 268 3.0 8.0 0.00 0.00 0.00 1012.4
20260902022033 64 22 2.0 6.0 0.00 0.00 0.00 1012.4
20260902021544 64 275 1.0 6.0 0.00 0.00 0.00 1012.5
20260902021025 65 292 1.0 5.0 0.00 0.00 0.00 1012.4
20260902020526 65 285 2.0 5.0 0.00 0.00 0.00 1012.4
20260902020043 65 311 1.0 8.0 0.00 0.00 0.00 1012.3
20260902015524 65 295 3.0 14.0 0.00 0.00 0.00 1012.3
20260902015026 65 299 3.0 17.0 0.00 0.00 0.00 1012.3
20260902014550 65 338 6.0 17.0 0.00 0.00 0.00 1012.3
20260902014025 65 307 9.0 17.0 0.00 0.00 0.00 1012.2
20260902013524 65 301 7.0 15.0 0.00 0.00 0.00 1012.3
20260902013048 65 304 7.0 15.0 0.00 0.00 0.00 1012.3
20260902012528 65 295 6.0 14.0 0.00 0.00 0.00 1012.3
20260902012028 65 288 7.0 14.0 0.00 0.00 0.00 1012.3
20260902011610 65 279 6.0 12.0 0.00 0.00 0.00 1012.3
20260902011024 66 291 4.0 11.0 0.00 0.00 0.00 1012.3
20260902010524 66 116 4.0 10.0 0.00 0.00 0.00 1012.2
20260902010047 66 283 5.0 10.0 0.00 0.00 0.00 1012.2
20260902005527 66 268 5.0 10.0 0.00 0.00 0.00 1011.9
20260902005025 66 279 3.0 9.0 0.00 0.00 0.00 1012.0
20260902004547 66 311 2.0 5.0 0.00 0.00 0.00 1012.1
20260902004032 66 286 1.0 5.0 0.00 0.00 0.00 1012.2
20260902003523 67 255 0.0 5.0 0.00 0.00 0.00 1012.2
20260902003100 67 201 2.0 5.0 0.00 0.00 0.00 1012.1
20260902002523 68 356 0.0 3.0 0.00 0.00 0.00 1012.1
20260902002027 67 317 1.0 4.0 0.00 0.00 0.00 1012.1
20260902001549 67 299 1.0 4.0 0.00 0.00 0.00 1012.0
20260902001026 67 288 1.0 4.0 0.00 0.00 0.00 1012.1
20260902000529 69 280 1.0 4.0 0.00 0.00 0.00 1012.1
20260902000047 69 311 1.0 4.0 0.00 0.00 0.00 1012.0
20260901235527 70 286 0.0 4.0 0.00 0.00 0.00 1012.0
20260901235025 69 252 1.0 5.0 0.00 0.00 0.00 1012.1
20260901234548 69 99 1.0 5.0 0.00 0.00 0.00 1012.2
20260901234024 69 141 1.0 4.0 0.00 0.00 0.00 1012.2
20260901233528 68 55 0.0 4.0 0.00 0.00 0.00 1012.3
20260901233050 69 166 1.0 4.0 0.00 0.00 0.00 1012.3
20260901232527 69 0 0.0 5.0 0.00 0.00 0.00 1012.3
20260901232030 69 263 1.0 6.0 0.00 0.00 0.00 1012.4
20260901231607 69 291 1.0 6.0 0.00 0.00 0.00 1012.4
20260901231025 69 299 2.0 6.0 0.00 0.00 0.00 1012.4
20260901230526 71 166 1.0 4.0 0.00 0.00 0.00 1012.4
20260901230056 72 141 0.0 3.0 0.00 0.00 0.00 1012.5
20260901225524 73 39 0.0 3.0 0.00 0.00 0.00 1012.5
20260901225024 74 311 0.0 5.0 0.00 0.00 0.00 1012.4
20260901224546 70 124 1.0 5.0 0.00 0.00 0.00 1012.6
20260901224024 70 329 1.0 3.0 0.00 0.00 0.00 1012.6
20260901223527 71 158 0.0 4.0 0.00 0.00 0.00 1012.6
20260901223050 68 201 1.0 4.0 0.00 0.00 0.00 1012.6
20260901222526 70 286 0.0 2.0 0.00 0.00 0.00 1012.7
20260901222029 69 0 0.0 2.0 0.00 0.00 0.00 1012.6
20260901221608 69 0 0.0 2.0 0.00 0.00 0.00 1012.6
20260901221028 70 183 0.0 2.0 0.00 0.00 0.00 1012.6
20260901220533 70 116 0.0 2.0 0.00 0.00 0.00 1012.8
20260901220100 70 0 0.0 2.0 0.00 0.00 0.00 1012.6
20260901215527 69 112 0.0 3.0 0.00 0.00 0.00 1012.5
20260901215025 69 124 0.0 3.0 0.00 0.00 0.00 1012.8
20260901214550 69 0 0.0 3.0 0.00 0.00 0.00 1012.7
20260901214028 68 278 0.0 4.0 0.00 0.00 0.00 1012.7
20260901213525 68 0 1.0 5.0 0.00 0.00 0.00 1012.7
20260901213105 68 319 1.0 5.0 0.00 0.00 0.00 1012.7
20260901212527 68 0 2.0 5.0 0.00 0.00 0.00 1012.7
20260901212029 69 166 0.0 3.0 0.00 0.00 0.00 1012.8
20260901211546 69 64 0.0 2.0 0.00 0.00 0.00 1012.9
20260901211027 68 311 0.0 4.0 0.00 0.00 0.00 1012.9
20260901210530 67 0 0.0 4.0 0.00 0.00 0.00 1012.9
20260901210044 66 295 1.0 4.0 0.00 0.00 0.00 1012.9
20260901205527 67 309 0.0 3.0 0.00 0.00 0.00 1012.8
20260901205029 68 0 0.0 3.0 0.00 0.00 0.00 1012.8
20260901204605 69 0 1.0 3.0 0.00 0.00 0.00 1012.8
20260901204027 71 311 0.0 3.0 0.00 0.00 0.00 1012.7
20260901203528 72 0 0.0 2.0 0.00 0.00 0.00 1012.9
20260901203045 71 107 0.0 2.0 0.00 0.00 0.00 1012.9
20260901202527 69 99 0.0 2.0 0.00 0.00 0.00 1012.7
20260901202024 68 99 0.0 3.0 0.00 0.00 0.00 1012.9
20260901201546 66 39 0.0 3.0 0.00 0.00 0.00 1012.9
20260901201027 65 302 1.0 3.0 0.00 0.00 0.00 1012.9
20260901200530 66 280 0.0 3.0 0.00 0.00 0.00 1012.8
20260901200114 66 0 0.0 3.0 0.00 0.00 0.00 1013.0
20260901195524 66 112 1.0 3.0 0.00 0.00 0.00 1013.0
20260901195026 66 285 1.0 2.0 0.00 0.00 0.00 1013.1
20260901194606 66 141 0.0 4.0 0.00 0.00 0.00 1013.1
20260901194032 66 286 1.0 4.0 0.00 0.00 0.00 1013.2
20260901193528 67 0 1.0 4.0 0.00 0.00 0.00 1013.2
20260901193058 68 295 0.0 4.0 0.00 0.00 0.00 1013.3
20260901192530 69 317 1.0 3.0 0.00 0.00 0.00 1013.2
20260901192026 68 64 0.0 2.0 0.00 0.00 0.00 1013.4
20260901191628 67 243 0.0 3.0 0.00 0.00 0.00 1013.3
20260901191025 65 124 0.0 4.0 0.00 0.00 0.00 1013.5
20260901190528 64 262 1.0 4.0 0.00 0.00 0.00 1013.5
20260901190057 65 0 1.0 4.0 0.00 0.00 0.00 1013.5
20260901185528 64 302 1.0 5.0 0.00 0.00 0.00 1013.5
20260901185025 65 295 1.0 5.0 0.00 0.00 0.00 1013.5
20260901184544 65 120 1.0 4.0 0.00 0.00 0.00 1013.6
20260901184025 65 338 1.0 4.0 0.00 0.00 0.00 1013.4
20260901183524 66 268 1.0 4.0 0.00 0.00 0.00 1013.5
20260901183056 66 311 1.0 4.0 0.00 0.00 0.00 1013.6
20260901182525 65 295 1.0 4.0 0.00 0.00 0.00 1013.5
20260901182028 66 311 1.0 4.0 0.00 0.00 0.00 1013.6
20260901181611 67 305 1.0 4.0 0.00 0.00 0.00 1013.5
20260901181027 66 49 1.0 7.0 0.00 0.00 0.00 1013.6
20260901180525 64 99 1.0 8.0 0.00 0.00 0.00 1013.6
20260901180049 63 268 2.0 8.0 0.00 0.00 0.00 1013.6
20260901175524 64 298 1.0 7.0 0.00 0.00 0.00 1013.6
20260901175024 64 268 0.0 6.0 0.00 0.00 0.00 1013.7
20260901174546 63 355 2.0 9.0 0.00 0.00 0.00 1013.6
20260901174027 63 295 1.0 9.0 0.00 0.00 0.00 1013.8
20260901173532 62 283 1.0 8.0 0.00 0.00 0.00 1013.7
20260901173052 61 219 2.0 9.0 0.00 0.00 0.00 1013.6
20260901172525 60 262 3.0 9.0 0.00 0.00 0.00 1013.6
20260901172026 60 290 2.0 6.0 0.00 0.00 0.00 1013.6
20260901171600 60 274 1.0 8.0 0.00 0.00 0.00 1013.7
20260901171024 59 278 2.0 8.0 0.00 0.00 0.00 1013.7
20260901170526 58 290 4.0 9.0 0.00 0.00 0.00 1013.6
20260901170057 59 288 3.0 10.0 0.00 0.00 0.00 1013.6
20260901165525 59 275 4.0 10.0 0.00 0.00 0.00 1013.6
20260901165024 59 189 3.0 9.0 0.00 0.00 0.00 1013.5
20260901164546 59 295 2.0 9.0 0.00 0.00 0.00 1013.6
20260901164027 58 286 4.0 9.0 0.00 0.00 0.00 1013.5
20260901163527 58 249 4.0 9.0 0.00 0.00 0.00 1013.5
20260901163054 59 285 5.0 9.0 0.00 0.00 0.00 1013.4
20260901162525 60 243 2.0 8.0 0.00 0.00 0.00 1013.4
20260901162029 60 355 2.0 6.0 0.00 0.00 0.00 1013.3
20260901161552 61 151 1.0 4.0 0.00 0.00 0.00 1013.3
20260901161026 60 275 1.0 6.0 0.00 0.00 0.00 1013.4
20260901160525 60 302 1.0 6.0 0.00 0.00 0.00 1013.3
20260901160109 59 175 1.0 6.0 0.00 0.00 0.00 1013.3
20260901155527 60 213 2.0 6.0 0.00 0.00 0.00 1013.2
20260901155028 60 151 1.0 6.0 0.00 0.00 0.00 1013.2
20260901154545 59 151 2.0 6.0 0.00 0.00 0.00 1013.3
20260901154025 60 0 1.0 4.0 0.00 0.00 0.00 1013.2
20260901153526 60 264 2.0 4.0 0.00 0.00 0.00 1013.3
20260901153058 60 304 0.0 5.0 0.00 0.00 0.00 1013.3
20260901152529 59 234 1.0 6.0 0.00 0.00 0.00 1013.3
20260901152025 59 246 2.0 6.0 0.00 0.00 0.00 1013.2
20260901151546 60 277 1.0 4.0 0.00 0.00 0.00 1013.1
20260901151026 60 0 1.0 5.0 0.00 0.00 0.00 1013.1
20260901150530 59 166 1.0 5.0 0.00 0.00 0.00 1013.1
20260901150108 59 214 2.0 5.0 0.00 0.00 0.00 1013.2
20260901145527 60 106 1.0 5.0 0.00 0.00 0.00 1013.2
20260901145027 59 160 1.0 5.0 0.00 0.00 0.00 1013.3
20260901144552 60 329 1.0 3.0 0.00 0.00 0.00 1013.1
20260901144025 60 0 0.0 2.0 0.00 0.00 0.00 1013.1
20260901143527 59 268 0.0 3.0 0.00 0.00 0.00 1013.1
20260901143107 59 99 1.0 3.0 0.00 0.00 0.00 1013.2
20260901142526 60 0 0.0 3.0 0.00 0.00 0.00 1013.2
20260901142024 59 0 1.0 3.0 0.00 0.00 0.00 1013.2
20260901141545 59 236 0.0 5.0 0.00 0.00 0.00 1013.1
20260901141025 59 0 1.0 6.0 0.00 0.00 0.00 1013.1
20260901140526 59 76 1.0 6.0 0.00 0.00 0.00 1013.0
20260901140128 59 147 0.0 3.0 0.00 0.00 0.00 1013.1
20260901135529 59 0 1.0 3.0 0.00 0.00 0.00 1013.1
20260901135028 59 0 0.0 3.0 0.00 0.00 0.00 1013.1
20260901134549 59 268 1.0 3.0 0.00 0.00 0.00 1013.0
20260901134031 60 99 0.0 2.0 0.00 0.00 0.00 1013.0
20260901133527 59 55 0.0 3.0 0.00 0.00 0.00 1013.0
20260901133046 59 116 0.0 3.0 0.00 0.00 0.00 1013.0
20260901132529 59 64 0.0 3.0 0.00 0.00 0.00 1013.0
20260901132031 59 0 1.0 4.0 0.00 0.00 0.00 1013.0
20260901131546 59 141 1.0 4.0 0.00 0.00 0.00 1013.0
20260901131028 59 0 0.0 2.0 0.00 0.00 0.00 1012.9
20260901130530 59 227 0.0 2.0 0.00 0.00 0.00 1012.9
20260901130051 59 0 0.0 2.0 0.00 0.00 0.00 1012.9
20260901125524 59 0 0.0 3.0 0.00 0.00 0.00 1012.9
20260901125025 59 0 0.0 3.0 0.00 0.00 0.00 1012.9
20260901124547 58 355 1.0 3.0 0.00 0.00 0.00 1012.9
20260901124030 59 112 0.0 4.0 0.00 0.00 0.00 1012.9
20260901123528 58 295 1.0 4.0 0.00 0.00 0.00 1012.9
20260901123045 59 307 1.0 4.0 0.00 0.00 0.00 1012.9
20260901122526 59 0 0.0 3.0 0.00 0.00 0.00 1012.8
20260901122027 59 210 0.0 3.0 0.00 0.00 0.00 1013.0
20260901121543 58 283 1.0 4.0 0.00 0.00 0.00 1013.0
20260901121029 58 248 1.0 4.0 0.00 0.00 0.00 1012.9
20260901120526 58 302 0.0 4.0 0.00 0.00 0.00 1012.9
20260901120052 59 141 1.0 4.0 0.00 0.00 0.00 1012.9
20260901115529 59 0 1.0 5.0 0.00 0.00 0.00 1012.9
20260901115024 58 0 2.0 5.0 0.00 0.00 0.00 1012.8
20260901114550 58 288 1.0 7.0 0.00 0.00 0.00 1012.9
20260901114029 58 338 3.0 7.0 0.00 0.00 0.00 1012.9
20260901113532 58 280 4.0 9.0 0.00 0.00 0.00 1012.8
20260901113103 58 288 3.0 12.0 0.00 0.00 0.00 1012.8
20260901112526 58 298 5.0 12.0 0.00 0.00 0.00 1012.8
20260901112025 57 302 4.0 11.0 0.00 0.00 0.00 1012.7
20260901111545 58 277 4.0 11.0 0.00 0.00 0.00 1012.7
20260901111028 58 230 5.0 10.0 0.00 0.00 0.00 1012.6
20260901110526 58 264 4.0 10.0 0.00 0.00 0.00 1012.6
20260901110052 58 283 4.0 10.0 0.00 0.00 0.00 1012.5
20260901105529 58 245 5.0 11.0 0.00 0.00 0.00 1012.5
20260901105026 58 261 6.0 11.0 0.00 0.00 0.00 1012.5